Regional Weather Roundup
Issued by NWS

Home | Current Version | Previous Version | Graphics & Text | Print | Product List | Glossary Off
Versions: 1 2 3 4 5 6 7 8 9 10 11 12 13 14 15 16 17 18 19 20 21 22 23 24 25 26 27 28 29 30 31 32 33 34 35 36 37 38 39 40 41 42 43 44 45 46 47 48 49 50

000
ASUS43 KMKX 042200
RWRWI

WISCONSIN REGIONAL WEATHER ROUNDUP
NATIONAL WEATHER SERVICE MILWAUKEE/SULLIVAN WI
500 PM CDT MON MAY 04 2015

NOTE: "FAIR" INDICATES FEW OR NO CLOUDS BELOW 12,000 FEET WITH NO
SIGNIFICANT WEATHER AND/OR OBSTRUCTIONS TO VISIBILITY.

WIZ001-002-006>008-014>016-023>028-042300-
NORTHWEST WISCONSIN

CITY           SKY/WX    TMP DP  RH WIND       PRES   REMARKS
SUPERIOR ARPT  PTSUNNY   67  22  18 CALM      30.18S
ASHLAND        PTSUNNY   65  30  27 NE9       30.20R
HAYWARD        MOSUNNY   67  16  14 N8        30.18S
SIREN          SUNNY     68  23  18 NW5       30.18S
CUMBERLAND     SUNNY     68  27  21 N5        30.17S
RICE LAKE      SUNNY     69  24  18 NW3       30.19R
CHETEK         SUNNY     68  28  22 NW3       30.17R
LADYSMITH      SUNNY     68  26  20 N8        30.17F
EAU CLAIRE     NOT AVBL
MENOMONIE      MOSUNNY   69  27  20 N8        30.17R
NEW RICHMOND   MOSUNNY   69  22  17 N5        30.17F
OSCEOLA        MOSUNNY   68  29  23 NE9       30.19S
$$

WIZ003>005-009-010-017-018-042300-
NORTH CENTRAL WISCONSIN

CITY           SKY/WX    TMP DP  RH WIND       PRES   REMARKS
MANITOWISH WTR MOSUNNY   62  21  21 N6        30.19S
ARBOR VITAE    MOSUNNY   64  21  19 N6        30.18S
WOODRUFF       MOSUNNY   64  21  19 N6        30.18S
RHINELANDER    SUNNY     65  25  22 CALM      30.17S
EAGLE RIVER    MOSUNNY   65  19  17 N5        30.17S
LAND O LAKES   MOSUNNY   64  24  21 NW6       30.19S
PHILLIPS       SUNNY     66  26  22 NW8       30.16S
TOMAHAWK       SUNNY     66  28  23 CALM      30.17F
MEDFORD        MOSUNNY   66  31  26 N6        30.16S
MERRILL        SUNNY     68  30  24 NE12      30.16S
$$

WIZ029-030-035-036-043>047-042300-
CENTRAL WISCONSIN

CITY           SKY/WX    TMP DP  RH WIND       PRES   REMARKS
WAUSAU         MOSUNNY   68  26  20 N8        30.14S
MOSINEE        SUNNY     66  32  28 N8        30.16S
MARSHFIELD     PTSUNNY   69  33  26 CALM      30.15S
STEVENS POINT  PTSUNNY   68  32  25 NE6       30.15R
WAUPACA        PTSUNNY   75  32  21 CALM      30.13S
WAUTOMA        NOT AVBL
WISC RAPIDS    PTSUNNY   71  31  22 N3        30.16R
CAMP DOUGLAS   NOT AVBL
$$

WIZ011>013-019>022-031-037>040-048>050-042300-
NORTHEAST WISCONSIN

CITY           SKY/WX    TMP DP  RH WIND       PRES   REMARKS
ANTIGO         SUNNY     66  35  31 N3        30.17S
SHAWANO        MOSUNNY   74  32  21 SW6       30.13S
OCONTO         MOSUNNY   64  41  43 E12       30.15R
STURGEON BAY   MOSUNNY   63  37  39 E9        30.20R
GREEN BAY      MOSUNNY   68  41  37 SE18G24   30.14R
MANITOWOC      NOT AVBL
APPLETON       PTSUNNY   72  36  26 CALM      30.14S
CLINTONVILLE   MOSUNNY   72  32  23 N6        30.13R
OSHKOSH        PTSUNNY   71  41  33 SE6       30.14S
$$

WIZ032>034-041-042-053>061-042300-
SOUTHWEST WISCONSIN

CITY           SKY/WX    TMP DP  RH WIND       PRES   REMARKS
LA CROSSE      PTSUNNY   74  38  27 VRB7      30.12F
SPARTA         PTSUNNY   73  31  21 NW6       30.14F
VIROQUA        PTSUNNY   70  38  31 NE6       30.14F
BOSCOBEL       PTSUNNY   76  47  35 E8        30.11S
PRAIRIE DU CHI CLOUDY    73  45  36 CALM      30.09F
PLATTEVILLE    CLOUDY    73  56  55 NE6       30.11F
$$

WIZ056-057-062-063-064-067-068-042300-
SOUTH CENTRAL WISCONSIN

CITY           SKY/WX    TMP DP  RH WIND       PRES   REMARKS
REEDSBURG      PTSUNNY   73  45  37 N6        30.12F
BARABOO/DELLS  NOT AVBL
LONE ROCK      NOT AVBL
MINERAL POINT  CLOUDY    72  52  49 E6        30.13R
MADISON        PTSUNNY   71  55  56 E10       30.12S
MIDDLETON      PTSUNNY   73  48  40 NE5       30.13S
WATERTOWN      CLOUDY    68  51  55 E9        30.13R
MONROE         CLOUDY    70  55  60 CALM      30.12S
JANESVILLE     PTSUNNY   73  55  53 E8        30.11
$$

WIZ051-052-058>065-066-070>072-042300-
SOUTHEAST WISCONSIN

CITY           SKY/WX    TMP DP  RH WIND       PRES   REMARKS
MILWAUKEE      PTSUNNY   59  40  49 NE12      30.17R
WAUKESHA       MOSUNNY   66  37  34 E12       30.16R
MILWAUKEE/TIMM NOT AVBL
RACINE         PTSUNNY   58  40  51 NE8       30.18S
BURLINGTON     MOSUNNY   66  47  49 E12       30.14S
KENOSHA        PTSUNNY   64  41  42 E13       30.16R
FOND DU LAC    MOSUNNY   71  41  33 NE8       30.14S
SHEBOYGAN      MOSUNNY   59  41  51 NE13      30.17S
WEST BEND      SUNNY     64  32  29 E12G18    30.16R
JUNEAU         MOSUNNY   70  52  52 SE8       30.14S
$$

LSZ147-162-042300-
LAKE SUPERIOR

STATION/POSITION TIME  TEMP    WIND        PRES    WAVE
                       AIR SEA DIR/SP/G            HT/PER
                 (UTC) (F)     (DEG/KT/KT) (MB)    (FT/S)
W MID LAKE BUOY  2050   40 36  190/ 10/ 10 1023.1F   0
DEVILS ISLAND    2100   60     210/  8/ 10 1022.5F
PORT WING        2100   58     310/  5/  6 1022.4
SAXON HARBOR     2100   59        CALM     1022.7F
$$

LMZ867-665-643>646-042300-
LAKE MICHIGAN

STATION/POSITION TIME  TEMP    WIND        PRES    WAVE
                       AIR SEA DIR/SP/G            HT/PER
                 (UTC) (F)     (DEG/KT/KT) (MB)    (FT/S)
CHAMBERS ISLAND  2100   59      60/ 10/ 13 1021.7R
NORTHPORT PIER   2100   49     140/  5/  6 1021.7R
SISTER BAY       2132   64     110/ 10/ 12   N/A
KEWAUNEE LAKESHO 2100           80/  5/  9 1021.1R
SHEBOYGAN LAKESH 2100   50      70/  4/  7 1022.0F
PORT WASHINGTON  2140   55      40/  8/ 10 1022.0S
ATWATER BUOY     2100   50     350/  4/  4 1022.7R
MILWAUKEE LAKESH 2100   51      40/  4/  5   N/A
KENOSHA   LAKESH 2100   49      10/  9/ 10 1021.0S
$$

TC  - TEMPERATURE IN CELSIUS
VSB - VISIBILITY IN STATUTE MILES
WCI - WIND CHILL INDEX
HX  - HEAT INDEX



USA.gov is the U.S. government's official web portal to all federal, state and local government web resources and services.